Content
SEND FEEDBACK

Daily
Averages
Monthly
Summary
United States of America

DERBY, TEXAS


Home > North America > United States > Texas
Elevation: 460 feet     Latitude: 28 45N     Longitude: 099 08W

WEATHER
 
SELECT A DAY
Number of Records: 174,107;   Date Range: 1/1/95 - 7/29/14
 
SHARE

PRINT THIS DATA

[ ← Previous Day ]
WEATHER ALMANAC - FEBRUARY 13, 2013
[ Next Day → ]
[ °C ]   °F
Weather ElementAverageHighLow
Temperature56.2 °F66.9 °F (3:53 pm)46.9 °F (11:53 pm)
Dewpoint32.2 °F37.9 °F (8:53 pm)27 °F (3:53 pm)
Humidity42.7 %68 % (11:53 pm)22 % (3:53 pm)
Barometer30.09 in30.18 in (8:53 am)30.01 in (5:53 pm)
Wind Speed4.5 mph12.7 mph (1:53 am)
Wind Gust18.4 mph (1:53 am)
Weather ElementAverage
Visibility10 mi
Wind DirectionESE (123 °)

Weather ElementTotal
Precipitation---
Heating Degree Days8.1 (Base 65)
Growing Degree Days6.9 (Base 50)
Averaged from 23 records on February 13, 2013
WEATHER CONDITIONS BREAKOUT
WIND DIRECTION BREAKOUT
WEATHER BY HOUR - FEBRUARY 13, 2013
[ °C ]   °F
Local TimeTemperatureDewpointHumidityBarometerVisibilityWind DirectionWind SpeedGust SpeedPrecipitationEventsConditions
1:53 AM60.1 °F32.0 °F35 %30.05 in10.0 miNorth (360°)12.7 mph18.4 mphClear
2:53 AM55.9 °F33.1 °F42 %30.06 in10.0 miNorth (10°)12.7 mphClear
3:53 AM53.1 °F32.0 °F45 %30.09 in10.0 miNNE (20°)9.2 mphMostly Cloudy
4:53 AM51.1 °F32.0 °F48 %30.10 in10.0 miNorth (10°)5.8 mph0.00 inOvercast
5:53 AM50.0 °F33.1 °F52 %30.12 in10.0 miNorth (360°)6.9 mphOvercast
6:53 AM50.0 °F32.0 °F50 %30.14 in10.0 miNNW (340°)5.8 mphOvercast
7:53 AM48.9 °F33.1 °F54 %30.16 in10.0 miCalmPartly Cloudy
8:53 AM50.0 °F33.1 °F52 %30.18 in10.0 miNNW (330°)4.6 mphPartly Cloudy
9:53 AM54.0 °F30.9 °F41 %30.18 in10.0 miCalmClear
10:53 AM57.0 °F30.9 °F37 %30.18 in10.0 miNW (310°)6.9 mphClear
11:53 AM60.1 °F30.9 °F33 %30.16 in10.0 miVariable3.5 mph
12:53 PM62.1 °F30.9 °F31 %30.12 in10.0 miCalmClear
1:53 PM64.9 °F30.0 °F27 %30.08 in10.0 miCalmClear
2:53 PM66.0 °F28.0 °F24 %30.04 in10.0 miCalmClear
3:53 PM66.9 °F27.0 °F22 %30.02 in10.0 miCalmClear
4:53 PM66.0 °F28.0 °F24 %30.02 in10.0 miWest (270°)3.5 mphClear
5:53 PM64.9 °F28.0 °F25 %30.01 in10.0 miCalmClear
6:53 PM60.1 °F30.9 °F33 %30.02 in10.0 miSSE (160°)4.6 mphClear
7:53 PM54.0 °F36.0 °F51 %30.04 in10.0 miESE (120°)6.9 mphClear
8:53 PM51.1 °F37.9 °F61 %30.06 in10.0 miESE (120°)6.9 mphClear
9:53 PM50.0 °F37.9 °F63 %30.07 in10.0 miESE (120°)4.6 mphClear
10:53 PM48.9 °F37.0 °F64 %30.08 in10.0 miSSE (160°)4.6 mphClear
11:53 PM46.9 °F37.0 °F68 %30.09 in10.0 miSE (140°)4.6 mphClear
Hourly data recorded from KCOT, located miles away from Derby, Texas







STORIES FROM OUR PARTNERS